Location: Banios
(43.0451°N, 0.2335°E)
Time: 12:20:44
(UTC+00:00)

USA 308 - Pass Details

Date: 25 January 2021
Orbit: 565 x 581 km, 54.0° (Epoch: 23 February)

Event Time Altitude Azimuth Distance (km) Brightness Sun altitude
Exits shadow 04:48:00 36° 130° (SE) 896 4.2 -27.9°
Drops below altitude 10° 04:51:47 10° 66° (ENE) 1,861 6.3 -27.2°
Sets 04:54:09 0° 58° (ENE) 2,761 7.2 -26.7°
